SCP
0 0 1 1 1 0 0 0 0 0 0 0 -0 1 1 1 1 1 1 1 1 1 0 0 0 0 0 0 0 0 0 0 0 0 0 0 0 0 0 0 0 0 0
0 0 0 0 0 0 0 0 0 0 0 0 0 1 3 2 2 1 0 0 0 0 0 0 0 0 0 0 0 0 0 0 0 0 0 0 0 0 0 0 0 0 0
0 0 0 0 0 0 0 0 0 0 0 0 0 0 0 0 0 0 0 0 0 0 0 0 0 0 0 0 0 0 0 -0 0 0 -0 0 0 0 0 0 0 0 -0
1 0 0 0 0 0 0 0 0 0 0 0 0 0 0 0 0 0 0 0 0 0 0 0 0 0 0 0 0 0 0 0 -0 -0 0 0 0 0 0 0 0 0 -0
0 0 0 0 0 0 0 0 0 0 0 0 0 0 0 0 0 0 0 0 0 0 0 0 0 0 0 0 0 0 0 0 0 0 0 0 0 0 0 0 0 0 0
0 0 0 0 0 0 0 0 0 0 0 0 0 1 0 0 0 0 0 0 0 0 0 0 0 0 0 0 0 0 0 0 0 0 0 0 0 0 0 0 0 0 0
0 0 0 0 0 0 0 0 0 0 0 0 0 0 0 0 0 0 0 0 0 0 0 0 0 0 0 0 0 0 0 0 0 0 0 0 0 0 0 0 0 0 0
0 0 0 0 0 0 0 0 0 0 0 0 0 0 0 0 0 0 0 0 0 0 0 0 0 0 0 0 0 0 0 0 0 0 0 0 0 0 0 0 0 0 0
0 0 0 0 0 0 0 0 0 0 0 0 0 0 0 0 0 0 0 0 0 0 0 0 0 0 0 0 0 0 0 0 0 0 0 0 0 0 0 0 0 0 0
0 0 0 0 0 0 0 0 0 0 0 0 0 0 0 0 0 0 0 0 0 0 0 0 0 0 0 0 0 0 0 0 0 0 0 0 0 0 0 0 0 0 0
0 0 0 0 0 0 0 0 0 0 0 0 0 0 0 0 0 0 0 0 0 0 0 0 0 0 0 0 0 0 0 0 0 0 0 0 0 0 0 0 0 0 0
0 0 0 1 1 1 0 0 0 0 0 0 0 0 0 0 0 0 0 0 0 0 0 0 0 0 0 0 0 0 0 0 0 0 0 0 0 0 0 0 0 0 0
0 0 1 1 1 0 0 0 0 0 0 0 0 0 0 0 0 0 0 0 0 0 0 0 0 0 0 0 0 0 0 0 0 0 0 0 0 0 0 0 0 0 0
0 1 1 0 0 0 0 0 0 0 0 0 0 0 0 0 0 0 0 0 0 0 0 0 0 0 0 0 0 0 0 0 0 0 0 0 0 0 0 0 0 0 0
0 0 0 0 0 0 0 0 0 0 0 0 0 0 0 0 0 0 0 0 0 0 0 0 0 0 0 0 0 0 0 0 0 0 0 0 0 0 0 0 0 0 0
0 0 0 0 0 0 0 0 0 0 0 0 0 0 0 0 0 0 0 0 0 0 0 0 0 0 0 0 0 0 0 0 0 0 0 0 0 0 0 0 0 0 0
0 0 0 0 0 0 0 0 0 0 0 0 0 0 0 0 0 0 0 0 0 0 0 0 0 0 0 0 0 0 0 0 0 0 0 0 0 0 0 0 0 0 0
0 0 0 0 0 0 0 0 0 0 0 0 0 0 0 0 0 0 0 0 0 0 0 0 0 0 0 0 0 0 0 0 0 0 0 0 0 0 0 0 0 0 0
0 0 0 0 0 0 0 0 0 0 0 0 0 0 0 0 0 0 0 0 0 0 0 0 0 0 0 0 0 0 0 0 0 0 0 0 0 0 0 0 0 0 0
0 0 0 0 0 0 0 0 0 0 0 0 0 0 0 0 0 0 0 0 0 0 0 0 0 0 0 0 0 0 0 0 0 0 0 0 0 0 0 0 0 0 0
0 0 0 0 0 0 0 0 0 0 0 0 0 0 0 0 0 0 0 0 0 0 0 0 0 0 0 0 0 0 0 0 0 0 0 0 0 0 0 0 0 0 0
-0 0 -0 -0 -0 -0 -0 0 0 0 0 0 0 0 0 0 0 0 0 0 0 0 0 0 0 0 0 0 0 0 0 0 0 0 0 0 0 0 0 0 0 0 -0
-0 -0 -0 -0 -0 -0 -0 -0 0 0 0 0 0 0 0 0 0 0 0 0 0 0 0 0 0 0 0 0 0 0 0 0 0 0 0 0 0 0 0 0 0 0 0
-0 -0 -0 -0 -0 -0 -0 -0 -0 0 0 0 0 0 0 0 0 0 0 0 0 0 0 0 0 0 0 0 0 0 0 0 0 0 0 0 0 0 0 0 0 0 0
-0 -0 -0 -0 -0 -0 -0 0 0 0 0 0 0 0 0 0 0 0 0 0 0 0 0 0 0 0 0 0 0 0 0 0 0 0 0 0 0 0 0 0 0 0 0
0 0 0 0 0 0 0 0 0 0 0 0 0 0 0 0 0 0 0 0 0 0 0 0 0 0 0 0 0 0 0 0 0 0 0 0 0 0 0 0 0 0 0
Wind_Speed_500mb
52 48 47 52 56 56 53 55 48 40 34 43 56 63 51 51 43 37 30 29 29 29 30 24 22 23 23 20 13 18 27 37 46 52 52 42 26 24 31 32 39 33 41
62 63 60 54 59 53 52 40 38 34 55 22 28 47 54 50 44 37 42 32 32 36 28 24 24 23 12 9 13 22 31 40 46 46 41 31 40 18 38 26 39 53 44
83 74 70 68 68 65 60 58 58 48 91 70 68 66 59 47 45 49 44 40 41 39 27 23 16 7 5 10 20 27 34 40 42 42 33 17 20 73 29 53 47 36 67
66 65 65 61 59 65 70 61 86 104 98 108 88 105 61 46 43 43 47 44 31 21 18 18 11 3 5 13 22 30 36 40 42 40 34 30 35 23 38 53 58 70 72
71 70 66 58 54 61 67 61 58 66 63 61 87 78 58 57 58 50 42 33 28 18 20 14 7 2 11 18 24 33 39 44 44 44 46 48 50 38 42 57 77 79 65
61 65 66 60 59 64 73 76 69 63 54 49 45 81 71 67 60 57 39 29 27 29 23 12 2 6 13 20 30 39 44 46 47 46 46 50 47 46 48 63 71 67 71
66 72 69 65 66 74 79 79 58 60 63 52 57 61 54 51 51 42 36 29 35 31 21 9 6 12 17 27 34 40 47 50 52 52 51 49 45 47 51 51 58 64 52
78 73 69 67 66 66 62 60 58 65 57 54 69 66 51 53 44 50 39 38 33 27 17 11 12 16 21 29 36 44 51 54 54 53 51 48 43 42 45 47 50 56 40
67 69 65 58 44 52 59 55 38 43 57 73 69 68 52 50 45 45 43 44 35 24 19 14 15 19 26 34 42 50 54 55 53 52 47 46 44 43 41 36 37 39 41
66 65 60 56 46 40 52 54 58 69 56 73 59 52 55 51 50 53 59 47 35 26 19 15 18 27 32 40 46 52 51 51 49 48 45 44 41 34 31 32 32 37 45
77 71 65 60 56 48 62 55 67 56 59 53 49 47 48 45 58 63 52 43 35 26 20 18 26 31 37 44 50 49 49 48 47 45 43 36 31 29 32 35 37 34 38
79 75 63 58 63 63 58 53 50 52 59 55 59 49 51 60 66 59 50 40 28 21 21 24 29 36 44 47 47 47 49 50 42 37 33 29 29 31 34 31 29 37 30
69 67 60 62 68 63 57 58 60 66 68 71 71 63 59 67 68 57 42 30 24 21 22 29 35 41 42 42 46 49 44 37 37 32 29 26 29 29 33 28 32 32 39
56 54 55 59 61 66 63 60 71 73 75 74 67 64 60 56 47 37 30 24 19 23 29 36 39 40 41 43 43 39 32 33 32 26 25 25 24 27 26 27 34 39 47
57 54 53 61 65 60 69 78 77 75 71 64 58 56 49 42 36 27 19 19 22 29 34 39 39 39 35 32 36 32 32 34 30 28 28 27 22 18 19 29 33 42 49
56 53 53 58 64 69 76 80 83 76 72 68 59 54 47 36 27 20 16 22 27 32 36 35 30 26 25 25 32 29 33 36 33 30 30 27 22 25 24 28 34 42 47
67 68 70 67 73 84 84 79 68 64 56 53 47 42 31 26 20 16 16 21 25 25 25 23 22 20 22 24 23 29 36 38 36 32 32 32 25 22 28 31 32 36 47
67 69 71 73 79 83 83 71 69 67 63 57 44 34 29 16 12 12 16 16 18 20 21 20 17 18 18 23 27 33 37 39 32 32 31 33 27 25 29 37 36 41 51
67 68 70 73 71 71 69 70 65 57 50 41 32 23 17 12 11 15 14 16 17 20 18 17 17 14 19 25 32 39 37 32 30 26 25 27 25 22 31 37 40 50 59
64 64 63 65 66 63 63 63 56 47 39 31 24 16 10 6 7 5 7 11 12 12 13 11 16 19 27 32 36 39 37 36 31 24 22 22 22 24 29 37 44 55 64
71 67 63 63 54 51 49 47 42 36 27 18 11 7 3 4 3 4 6 10 11 11 12 16 22 28 32 32 33 33 34 35 33 31 30 28 24 23 29 36 42 50 61
59 55 52 48 40 31 23 28 29 25 19 14 12 11 10 8 8 7 11 10 12 13 12 12 13 16 19 25 24 19 21 27 30 30 30 33 29 28 33 36 40 46 56
54 46 43 42 38 34 28 28 19 14 15 14 16 15 14 12 11 12 12 14 17 16 19 21 21 20 23 26 27 27 27 28 30 32 35 38 36 33 33 34 38 47 55
49 43 41 41 40 31 27 23 24 22 20 17 22 21 16 14 13 13 14 17 21 24 24 22 23 23 27 34 38 43 42 37 34 36 37 33 29 28 31 31 38 48 56
45 37 36 35 37 33 30 28 26 25 26 26 25 23 18 15 14 13 15 16 21 24 25 26 26 27 27 30 30 37 48 48 44 39 38 33 33 36 41 45 46 52 58
43 40 37 33 34 32 31 31 29 26 26 28 28 24 18 17 16 15 14 16 18 20 23 26 22 20 22 20 23 29 34 37 40 40 44 46 46 49 55 55 56 56 59
Wind_Direction_500mb
185 178 171 175 182 182 174 186 196 216 220 230 243 231 226 215 199 192 205 205 216 227 226 238 254 268 285 288 301 326 335 334 337 333 332 334 323 313 325 323 330 329 335
189 190 186 175 167 175 174 173 217 219 244 246 296 240 215 195 195 218 211 207 225 234 231 245 258 266 269 292 323 339 347 349 345 345 342 335 336 308 334 325 324 334 336
198 195 198 201 205 210 207 233 256 248 246 235 260 285 222 211 203 208 202 208 215 234 234 243 227 216 282 327 347 345 352 355 354 353 3 344 331 332 318 332 330 327 338
196 204 209 212 220 227 233 229 224 229 237 231 247 246 258 246 234 214 215 209 213 213 220 186 175 177 327 349 348 347 351 352 353 354 351 345 335 325 320 319 333 327 337
210 209 216 218 216 219 223 220 220 218 233 241 220 218 208 228 230 221 206 207 215 198 177 173 146 17 345 349 345 345 348 351 351 346 341 336 333 332 318 317 321 324 333
206 206 207 208 216 219 218 212 220 219 225 227 210 204 197 209 215 230 211 220 184 173 176 165 158 307 326 342 344 342 343 344 342 337 334 330 330 324 321 314 318 322 330
207 202 206 215 214 210 214 222 231 230 242 221 216 191 206 212 215 215 235 202 174 177 177 176 243 292 328 343 339 337 335 334 332 327 325 324 319 316 315 313 319 321 334
212 216 218 216 209 208 214 217 220 231 235 211 179 190 200 229 205 233 202 171 178 187 188 211 251 305 331 330 331 330 328 324 322 317 317 317 321 319 312 314 324 332 325
211 213 214 222 206 210 210 194 201 201 190 183 187 185 203 216 212 191 173 179 185 192 208 235 281 307 318 325 325 323 318 316 317 316 320 320 319 315 311 316 323 337 326
215 218 221 213 183 186 184 195 188 188 187 194 202 198 189 200 186 175 180 185 189 203 221 251 288 306 315 318 317 313 313 316 318 317 320 319 315 316 316 323 328 324 323
209 213 212 201 191 174 169 169 178 188 189 190 196 185 171 176 174 179 183 189 196 207 234 267 290 305 311 313 314 316 317 320 319 319 319 316 316 321 329 324 317 317 321
203 202 203 195 193 188 187 190 188 191 196 195 172 178 185 180 177 183 187 190 202 220 252 285 303 308 311 314 316 317 320 319 317 318 317 318 316 328 321 329 331 327 336
191 197 193 190 184 187 193 203 203 198 184 172 172 169 164 170 179 184 188 198 216 244 278 299 305 309 316 316 316 318 321 317 320 318 317 319 328 330 324 326 331 336 328
171 180 185 190 189 187 186 179 168 166 160 157 152 151 158 167 176 187 200 218 250 280 296 307 310 315 313 313 314 318 315 324 326 318 315 322 315 320 321 328 330 326 322
145 161 172 174 177 166 167 160 154 149 148 154 162 164 167 179 188 197 217 248 277 296 308 306 311 309 310 310 308 315 323 331 324 316 319 309 301 300 312 318 320 322 323
128 138 153 154 158 168 152 146 147 153 163 163 166 166 172 179 191 211 248 278 291 302 304 302 307 303 304 300 306 321 325 332 332 322 311 318 311 301 310 311 316 323 326
120 129 134 132 139 150 149 149 157 164 167 170 175 172 172 187 201 228 258 283 297 299 301 311 302 288 293 302 313 314 323 332 332 318 314 323 309 293 301 313 319 326 333
134 141 147 150 149 153 157 159 171 165 165 166 165 168 182 197 224 255 279 296 303 307 310 305 293 297 302 298 310 310 322 324 322 319 317 320 305 290 298 315 327 336 340
138 138 143 148 148 149 149 155 154 153 154 156 164 170 182 208 244 271 291 297 305 310 317 319 324 314 301 303 311 316 321 333 342 327 317 311 302 294 307 323 329 336 342
132 133 135 135 137 137 144 147 144 153 155 158 167 177 189 221 265 298 322 346 355 341 336 317 310 311 309 317 321 320 332 336 337 328 315 318 299 296 319 331 335 335 341
126 130 132 130 130 139 148 147 145 145 146 148 139 129 127 100 88 45 36 5 346 319 305 304 307 312 318 323 326 336 333 329 333 331 324 326 318 305 322 333 335 336 337
134 138 138 138 138 139 153 130 134 130 125 124 130 124 130 119 98 46 31 16 4 348 340 337 330 334 341 348 346 335 350 350 344 339 337 336 333 328 327 331 332 334 339
145 147 147 144 142 145 153 157 129 116 108 132 125 127 122 112 82 57 41 27 26 21 22 21 19 17 22 21 16 356 1 0 355 346 338 336 332 329 330 334 338 343 348
145 147 144 142 139 143 151 148 136 151 162 139 121 115 118 103 77 55 46 40 39 33 30 33 38 34 25 21 16 12 11 10 6 356 346 343 344 344 344 347 356 353 355
141 146 147 139 133 133 133 132 134 132 135 129 120 118 114 101 82 64 59 51 41 30 27 29 22 20 21 25 15 12 10 12 14 8 6 11 13 10 6 7 4 358 355
147 150 143 138 132 135 133 132 130 129 126 119 109 103 96 84 75 71 63 52 52 43 27 22 18 13 8 6 18 19 17 13 22 23 24 20 17 17 13 8 2 1 355
Wind_Speed_850mb
52 48 47 52 56 56 53 55 48 40 34 43 56 63 51 51 43 37 30 29 29 29 30 24 22 23 23 20 13 18 27 37 46 52 52 42 26 24 31 32 39 33 41
62 63 60 54 59 53 52 40 38 34 55 22 28 47 54 50 44 37 42 32 32 36 28 24 24 23 12 9 13 22 31 40 46 46 41 31 40 18 38 26 39 53 44
83 74 70 68 68 65 60 58 58 48 91 70 68 66 59 47 45 49 44 40 41 39 27 23 16 7 5 10 20 27 34 40 42 42 33 17 20 73 29 53 47 36 67
66 65 65 61 59 65 70 61 86 104 98 108 88 105 61 46 43 43 47 44 31 21 18 18 11 3 5 13 22 30 36 40 42 40 34 30 35 23 38 53 58 70 72
71 70 66 58 54 61 67 61 58 66 63 61 87 78 58 57 58 50 42 33 28 18 20 14 7 2 11 18 24 33 39 44 44 44 46 48 50 38 42 57 77 79 65
61 65 66 60 59 64 73 76 69 63 54 49 45 81 71 67 60 57 39 29 27 29 23 12 2 6 13 20 30 39 44 46 47 46 46 50 47 46 48 63 71 67 71
66 72 69 65 66 74 79 79 58 60 63 52 57 61 54 51 51 42 36 29 35 31 21 9 6 12 17 27 34 40 47 50 52 52 51 49 45 47 51 51 58 64 52
78 73 69 67 66 66 62 60 58 65 57 54 69 66 51 53 44 50 39 38 33 27 17 11 12 16 21 29 36 44 51 54 54 53 51 48 43 42 45 47 50 56 40
67 69 65 58 44 52 59 55 38 43 57 73 69 68 52 50 45 45 43 44 35 24 19 14 15 19 26 34 42 50 54 55 53 52 47 46 44 43 41 36 37 39 41
66 65 60 56 46 40 52 54 58 69 56 73 59 52 55 51 50 53 59 47 35 26 19 15 18 27 32 40 46 52 51 51 49 48 45 44 41 34 31 32 32 37 45
77 71 65 60 56 48 62 55 67 56 59 53 49 47 48 45 58 63 52 43 35 26 20 18 26 31 37 44 50 49 49 48 47 45 43 36 31 29 32 35 37 34 38
79 75 63 58 63 63 58 53 50 52 59 55 59 49 51 60 66 59 50 40 28 21 21 24 29 36 44 47 47 47 49 50 42 37 33 29 29 31 34 31 29 37 30
69 67 60 62 68 63 57 58 60 66 68 71 71 63 59 67 68 57 42 30 24 21 22 29 35 41 42 42 46 49 44 37 37 32 29 26 29 29 33 28 32 32 39
56 54 55 59 61 66 63 60 71 73 75 74 67 64 60 56 47 37 30 24 19 23 29 36 39 40 41 43 43 39 32 33 32 26 25 25 24 27 26 27 34 39 47
57 54 53 61 65 60 69 78 77 75 71 64 58 56 49 42 36 27 19 19 22 29 34 39 39 39 35 32 36 32 32 34 30 28 28 27 22 18 19 29 33 42 49
56 53 53 58 64 69 76 80 83 76 72 68 59 54 47 36 27 20 16 22 27 32 36 35 30 26 25 25 32 29 33 36 33 30 30 27 22 25 24 28 34 42 47
67 68 70 67 73 84 84 79 68 64 56 53 47 42 31 26 20 16 16 21 25 25 25 23 22 20 22 24 23 29 36 38 36 32 32 32 25 22 28 31 32 36 47
67 69 71 73 79 83 83 71 69 67 63 57 44 34 29 16 12 12 16 16 18 20 21 20 17 18 18 23 27 33 37 39 32 32 31 33 27 25 29 37 36 41 51
67 68 70 73 71 71 69 70 65 57 50 41 32 23 17 12 11 15 14 16 17 20 18 17 17 14 19 25 32 39 37 32 30 26 25 27 25 22 31 37 40 50 59
64 64 63 65 66 63 63 63 56 47 39 31 24 16 10 6 7 5 7 11 12 12 13 11 16 19 27 32 36 39 37 36 31 24 22 22 22 24 29 37 44 55 64
71 67 63 63 54 51 49 47 42 36 27 18 11 7 3 4 3 4 6 10 11 11 12 16 22 28 32 32 33 33 34 35 33 31 30 28 24 23 29 36 42 50 61
59 55 52 48 40 31 23 28 29 25 19 14 12 11 10 8 8 7 11 10 12 13 12 12 13 16 19 25 24 19 21 27 30 30 30 33 29 28 33 36 40 46 56
54 46 43 42 38 34 28 28 19 14 15 14 16 15 14 12 11 12 12 14 17 16 19 21 21 20 23 26 27 27 27 28 30 32 35 38 36 33 33 34 38 47 55
49 43 41 41 40 31 27 23 24 22 20 17 22 21 16 14 13 13 14 17 21 24 24 22 23 23 27 34 38 43 42 37 34 36 37 33 29 28 31 31 38 48 56
45 37 36 35 37 33 30 28 26 25 26 26 25 23 18 15 14 13 15 16 21 24 25 26 26 27 27 30 30 37 48 48 44 39 38 33 33 36 41 45 46 52 58
43 40 37 33 34 32 31 31 29 26 26 28 28 24 18 17 16 15 14 16 18 20 23 26 22 20 22 20 23 29 34 37 40 40 44 46 46 49 55 55 56 56 59
Wind_Direction_850mb
185 178 171 175 182 182 174 186 196 216 220 230 243 231 226 215 199 192 205 205 216 227 226 238 254 268 285 288 301 326 335 334 337 333 332 334 323 313 325 323 330 329 335
189 190 186 175 167 175 174 173 217 219 244 246 296 240 215 195 195 218 211 207 225 234 231 245 258 266 269 292 323 339 347 349 345 345 342 335 336 308 334 325 324 334 336
198 195 198 201 205 210 207 233 256 248 246 235 260 285 222 211 203 208 202 208 215 234 234 243 227 216 282 327 347 345 352 355 354 353 3 344 331 332 318 332 330 327 338
196 204 209 212 220 227 233 229 224 229 237 231 247 246 258 246 234 214 215 209 213 213 220 186 175 177 327 349 348 347 351 352 353 354 351 345 335 325 320 319 333 327 337
210 209 216 218 216 219 223 220 220 218 233 241 220 218 208 228 230 221 206 207 215 198 177 173 146 17 345 349 345 345 348 351 351 346 341 336 333 332 318 317 321 324 333
206 206 207 208 216 219 218 212 220 219 225 227 210 204 197 209 215 230 211 220 184 173 176 165 158 307 326 342 344 342 343 344 342 337 334 330 330 324 321 314 318 322 330
207 202 206 215 214 210 214 222 231 230 242 221 216 191 206 212 215 215 235 202 174 177 177 176 243 292 328 343 339 337 335 334 332 327 325 324 319 316 315 313 319 321 334
212 216 218 216 209 208 214 217 220 231 235 211 179 190 200 229 205 233 202 171 178 187 188 211 251 305 331 330 331 330 328 324 322 317 317 317 321 319 312 314 324 332 325
211 213 214 222 206 210 210 194 201 201 190 183 187 185 203 216 212 191 173 179 185 192 208 235 281 307 318 325 325 323 318 316 317 316 320 320 319 315 311 316 323 337 326
215 218 221 213 183 186 184 195 188 188 187 194 202 198 189 200 186 175 180 185 189 203 221 251 288 306 315 318 317 313 313 316 318 317 320 319 315 316 316 323 328 324 323
209 213 212 201 191 174 169 169 178 188 189 190 196 185 171 176 174 179 183 189 196 207 234 267 290 305 311 313 314 316 317 320 319 319 319 316 316 321 329 324 317 317 321
203 202 203 195 193 188 187 190 188 191 196 195 172 178 185 180 177 183 187 190 202 220 252 285 303 308 311 314 316 317 320 319 317 318 317 318 316 328 321 329 331 327 336
191 197 193 190 184 187 193 203 203 198 184 172 172 169 164 170 179 184 188 198 216 244 278 299 305 309 316 316 316 318 321 317 320 318 317 319 328 330 324 326 331 336 328
171 180 185 190 189 187 186 179 168 166 160 157 152 151 158 167 176 187 200 218 250 280 296 307 310 315 313 313 314 318 315 324 326 318 315 322 315 320 321 328 330 326 322
145 161 172 174 177 166 167 160 154 149 148 154 162 164 167 179 188 197 217 248 277 296 308 306 311 309 310 310 308 315 323 331 324 316 319 309 301 300 312 318 320 322 323
128 138 153 154 158 168 152 146 147 153 163 163 166 166 172 179 191 211 248 278 291 302 304 302 307 303 304 300 306 321 325 332 332 322 311 318 311 301 310 311 316 323 326
120 129 134 132 139 150 149 149 157 164 167 170 175 172 172 187 201 228 258 283 297 299 301 311 302 288 293 302 313 314 323 332 332 318 314 323 309 293 301 313 319 326 333
134 141 147 150 149 153 157 159 171 165 165 166 165 168 182 197 224 255 279 296 303 307 310 305 293 297 302 298 310 310 322 324 322 319 317 320 305 290 298 315 327 336 340
138 138 143 148 148 149 149 155 154 153 154 156 164 170 182 208 244 271 291 297 305 310 317 319 324 314 301 303 311 316 321 333 342 327 317 311 302 294 307 323 329 336 342
132 133 135 135 137 137 144 147 144 153 155 158 167 177 189 221 265 298 322 346 355 341 336 317 310 311 309 317 321 320 332 336 337 328 315 318 299 296 319 331 335 335 341
126 130 132 130 130 139 148 147 145 145 146 148 139 129 127 100 88 45 36 5 346 319 305 304 307 312 318 323 326 336 333 329 333 331 324 326 318 305 322 333 335 336 337
134 138 138 138 138 139 153 130 134 130 125 124 130 124 130 119 98 46 31 16 4 348 340 337 330 334 341 348 346 335 350 350 344 339 337 336 333 328 327 331 332 334 339
145 147 147 144 142 145 153 157 129 116 108 132 125 127 122 112 82 57 41 27 26 21 22 21 19 17 22 21 16 356 1 0 355 346 338 336 332 329 330 334 338 343 348
145 147 144 142 139 143 151 148 136 151 162 139 121 115 118 103 77 55 46 40 39 33 30 33 38 34 25 21 16 12 11 10 6 356 346 343 344 344 344 347 356 353 355
141 146 147 139 133 133 133 132 134 132 135 129 120 118 114 101 82 64 59 51 41 30 27 29 22 20 21 25 15 12 10 12 14 8 6 11 13 10 6 7 4 358 355
147 150 143 138 132 135 133 132 130 129 126 119 109 103 96 84 75 71 63 52 52 43 27 22 18 13 8 6 18 19 17 13 22 23 24 20 17 17 13 8 2 1 355